(°C)
10°
11°
(°C)
10°
ZO
ZO
ONO
OZO
ZZO
ZZO
Z
(km/u)
10-25
5-15
5-16
4-15
4-13
3-10
3-10
(mm)
1
0
0
0
0
1.9
0
(%)
47
39
15
28
35
54
27

Zonverhoging

/ -16.8°
sun-icon
UV 1
07:39
17:14
(3°)
07:44
17:16

METAR voor Ioánnina (LGIO)

Tijd Voorwaarden Temperatuur/
Dauwpunt
Wind Zicht Weer Wolken Luchtdruk Wijzigen Ruw
6°C / 5°C variable 3kt Light Rain 1.00mm precipitation Vertical Visibility of 0ft. 1008 - LGIO 040350Z AUTO VRB03KT //// -RA ////// 06/05 Q1008 RE//
6°C / 5°C 340º variable 330º to 040º 7kt Light Rain 1.00mm precipitation Vertical Visibility of 0ft. 1009 - LGIO 040320Z AUTO 34007KT 330V040 //// -RA ////// 06/05 Q1009 RE//
5°C / 5°C variable 3kt - 1008 - LGIO 040250Z AUTO VRB03KT //// // ////// 05/05 Q1008 RE//
4°C / 4°C variable 2kt - 1008 - LGIO 040220Z AUTO VRB02KT //// // ////// 04/04 Q1008 RE//
5°C / 5°C variable 1kt - 1008 - LGIO 040150Z AUTO VRB01KT //// // ////// 05/05 Q1008 RE//
4°C / 4°C variable 1kt - 1008 - LGIO 040120Z AUTO VRB01KT //// // ////// 04/04 Q1008 RE//
6°C / 6°C variable 0kt - 1008 - LGIO 040050Z AUTO 00000KT //// // ////// 06/06 Q1008 RE//
6°C / 6°C variable 1kt - 1008 - LGIO 040020Z AUTO VRB01KT //// // ////// 06/06 Q1008 RE//
5°C / 4°C variable 1kt - 1008 - LGIO 032350Z AUTO VRB01KT //// // ////// 05/04 Q1008 RE//
6°C / 6°C variable 1kt - 1008 - LGIO 032320Z AUTO VRB01KT //// // ////// 06/06 Q1008 RE//
7°C / 5°C variable 1kt - 1008 - LGIO 032250Z AUTO VRB01KT //// // ////// 07/05 Q1008 RE//
7°C / 6°C variable 0kt - 1008 - LGIO 032220Z AUTO 00000KT //// // ////// 07/06 Q1008 RE//
7°C / 6°C variable 0kt - 1008 - LGIO 032150Z AUTO 00000KT //// // ////// 07/06 Q1008 RE//
9°C / 6°C 330º variable 250º to 050º 5kt - 1008 - LGIO 032120Z AUTO 33005KT 250V050 //// // ////// 09/06 Q1008 RE//
9°C / 6°C 210º variable 160º to 240º 4kt - 1008 - LGIO 032050Z AUTO 21004KT 160V240 //// // ////// 09/06 Q1008 RE//
9°C / 6°C 190º 5kt - 1008 - LGIO 032020Z AUTO 19005KT //// // ////// 09/06 Q1008 RE//
9°C / 6°C 140º 10kt - 1008 - LGIO 031950Z AUTO 14010KT //// // ////// 09/06 Q1008 RE//
9°C / 7°C 160º variable 130º to 190º 7kt - 1008 - LGIO 031920Z AUTO 16007KT 130V190 //// // ////// 09/07 Q1008 RE//
MVFR 8°C / 7°C 190º 6kt >10km - Few Clouds 2000ft
Broken Clouds 3000ft
Overcast 8000ft
1008 - LGIO 031850Z 19006KT 9999 FEW020TCU BKN030 OVC080 08/07 Q1008
MVFR 8°C / 7°C 120º 7kt >10km Light Rain 1.00mm precipitation Vertical Visibility of 0ft.
Broken Clouds 3000ft
Overcast 8000ft
1008 - LGIO 031820Z 12007KT 9999 -RA FEW020TCU BKN030 OVC080 08/07 Q1008
MVFR 9°C / 6°C variable 3kt >10km Light Rain 1.00mm precipitation Vertical Visibility of 0ft.
Broken Clouds 3000ft
Overcast 8000ft
1008 - LGIO 031750Z VRB03KT 9999 -RA FEW020TCU BKN030 OVC080 09/06 Q1008
MVFR 8°C / 6°C 130º 4kt >10km - Few Clouds 2000ft
Broken Clouds 3000ft
Overcast 8000ft
1008 - LGIO 031720Z 13004KT 9999 FEW020TCU BKN030 OVC080 08/06 Q1008
MVFR 9°C / 6°C 130º 4kt >10km - Few Clouds 2000ft
Broken Clouds 3000ft
Overcast 8000ft
1008 - LGIO 031650Z 13004KT 9999 FEW020TCU BKN030 OVC080 09/06 Q1008
MVFR 9°C / 7°C 170º 3kt >10km - Few Clouds 2000ft
Broken Clouds 3000ft
Overcast 8000ft
1008 - LGIO 031620Z 17003KT 9999 FEW020TCU BKN030 OVC080 09/07 Q1008 RERA

6°C / 5°C

[Meer]
Wind variable 3kt
Zicht
Weer Light Rain 1.00mm precipitation
Wolken Vertical Visibility of 0ft.
Luchtdruk 1008
Wijzigen -
Ruw LGIO 040350Z AUTO VRB03KT //// -RA ////// 06/05 Q1008 RE//

6°C / 5°C

[Meer]
Wind 340º variable 330º to 040º 7kt
Zicht
Weer Light Rain 1.00mm precipitation
Wolken Vertical Visibility of 0ft.
Luchtdruk 1009
Wijzigen -
Ruw LGIO 040320Z AUTO 34007KT 330V040 //// -RA ////// 06/05 Q1009 RE//

5°C / 5°C

[Meer]
Wind variable 3kt
Zicht
Weer -
Wolken
Luchtdruk 1008
Wijzigen -
Ruw LGIO 040250Z AUTO VRB03KT //// // ////// 05/05 Q1008 RE//

4°C / 4°C

[Meer]
Wind variable 2kt
Zicht
Weer -
Wolken
Luchtdruk 1008
Wijzigen -
Ruw LGIO 040220Z AUTO VRB02KT //// // ////// 04/04 Q1008 RE//

5°C / 5°C

[Meer]
Wind variable 1kt
Zicht
Weer -
Wolken
Luchtdruk 1008
Wijzigen -
Ruw LGIO 040150Z AUTO VRB01KT //// // ////// 05/05 Q1008 RE//

4°C / 4°C

[Meer]
Wind variable 1kt
Zicht
Weer -
Wolken
Luchtdruk 1008
Wijzigen -
Ruw LGIO 040120Z AUTO VRB01KT //// // ////// 04/04 Q1008 RE//

6°C / 6°C

[Meer]
Wind variable 0kt
Zicht
Weer -
Wolken
Luchtdruk 1008
Wijzigen -
Ruw LGIO 040050Z AUTO 00000KT //// // ////// 06/06 Q1008 RE//

6°C / 6°C

[Meer]
Wind variable 1kt
Zicht
Weer -
Wolken
Luchtdruk 1008
Wijzigen -
Ruw LGIO 040020Z AUTO VRB01KT //// // ////// 06/06 Q1008 RE//

5°C / 4°C

[Meer]
Wind variable 1kt
Zicht
Weer -
Wolken
Luchtdruk 1008
Wijzigen -
Ruw LGIO 032350Z AUTO VRB01KT //// // ////// 05/04 Q1008 RE//

6°C / 6°C

[Meer]
Wind variable 1kt
Zicht
Weer -
Wolken
Luchtdruk 1008
Wijzigen -
Ruw LGIO 032320Z AUTO VRB01KT //// // ////// 06/06 Q1008 RE//

7°C / 5°C

[Meer]
Wind variable 1kt
Zicht
Weer -
Wolken
Luchtdruk 1008
Wijzigen -
Ruw LGIO 032250Z AUTO VRB01KT //// // ////// 07/05 Q1008 RE//

7°C / 6°C

[Meer]
Wind variable 0kt
Zicht
Weer -
Wolken
Luchtdruk 1008
Wijzigen -
Ruw LGIO 032220Z AUTO 00000KT //// // ////// 07/06 Q1008 RE//

7°C / 6°C

[Meer]
Wind variable 0kt
Zicht
Weer -
Wolken
Luchtdruk 1008
Wijzigen -
Ruw LGIO 032150Z AUTO 00000KT //// // ////// 07/06 Q1008 RE//

9°C / 6°C

[Meer]
Wind 330º variable 250º to 050º 5kt
Zicht
Weer -
Wolken
Luchtdruk 1008
Wijzigen -
Ruw LGIO 032120Z AUTO 33005KT 250V050 //// // ////// 09/06 Q1008 RE//

9°C / 6°C

[Meer]
Wind 210º variable 160º to 240º 4kt
Zicht
Weer -
Wolken
Luchtdruk 1008
Wijzigen -
Ruw LGIO 032050Z AUTO 21004KT 160V240 //// // ////// 09/06 Q1008 RE//

9°C / 6°C

[Meer]
Wind 190º 5kt
Zicht
Weer -
Wolken
Luchtdruk 1008
Wijzigen -
Ruw LGIO 032020Z AUTO 19005KT //// // ////// 09/06 Q1008 RE//

9°C / 6°C

[Meer]
Wind 140º 10kt
Zicht
Weer -
Wolken
Luchtdruk 1008
Wijzigen -
Ruw LGIO 031950Z AUTO 14010KT //// // ////// 09/06 Q1008 RE//

9°C / 7°C

[Meer]
Wind 160º variable 130º to 190º 7kt
Zicht
Weer -
Wolken
Luchtdruk 1008
Wijzigen -
Ruw LGIO 031920Z AUTO 16007KT 130V190 //// // ////// 09/07 Q1008 RE//

MVFR

8°C / 7°C

[Meer]
Wind 190º 6kt
Zicht >10km
Weer -
Wolken Few Clouds 2000ft
Broken Clouds 3000ft
Overcast 8000ft
Luchtdruk 1008
Wijzigen -
Ruw LGIO 031850Z 19006KT 9999 FEW020TCU BKN030 OVC080 08/07 Q1008

MVFR

8°C / 7°C

[Meer]
Wind 120º 7kt
Zicht >10km
Weer Light Rain 1.00mm precipitation
Wolken Vertical Visibility of 0ft.
Broken Clouds 3000ft
Overcast 8000ft
Luchtdruk 1008
Wijzigen -
Ruw LGIO 031820Z 12007KT 9999 -RA FEW020TCU BKN030 OVC080 08/07 Q1008

MVFR

9°C / 6°C

[Meer]
Wind variable 3kt
Zicht >10km
Weer Light Rain 1.00mm precipitation
Wolken Vertical Visibility of 0ft.
Broken Clouds 3000ft
Overcast 8000ft
Luchtdruk 1008
Wijzigen -
Ruw LGIO 031750Z VRB03KT 9999 -RA FEW020TCU BKN030 OVC080 09/06 Q1008

MVFR

8°C / 6°C

[Meer]
Wind 130º 4kt
Zicht >10km
Weer -
Wolken Few Clouds 2000ft
Broken Clouds 3000ft
Overcast 8000ft
Luchtdruk 1008
Wijzigen -
Ruw LGIO 031720Z 13004KT 9999 FEW020TCU BKN030 OVC080 08/06 Q1008

MVFR

9°C / 6°C

[Meer]
Wind 130º 4kt
Zicht >10km
Weer -
Wolken Few Clouds 2000ft
Broken Clouds 3000ft
Overcast 8000ft
Luchtdruk 1008
Wijzigen -
Ruw LGIO 031650Z 13004KT 9999 FEW020TCU BKN030 OVC080 09/06 Q1008

MVFR

9°C / 7°C

[Meer]
Wind 170º 3kt
Zicht >10km
Weer -
Wolken Few Clouds 2000ft
Broken Clouds 3000ft
Overcast 8000ft
Luchtdruk 1008
Wijzigen -
Ruw LGIO 031620Z 17003KT 9999 FEW020TCU BKN030 OVC080 09/07 Q1008 RERA

TAF voor Ioánnina (LGIO)

From till


From till Wind 60º 5kt. Visibility 10km or more. Scattered Clouds 800ft. Broken Clouds 2500ft.
With 40% probability, Temporarly from till Visibility 5000m. Rain . Scattered Clouds 700ft. Broken Clouds 2000ft. Overcast 7000ft.
With 40% probability, Temporarly from till Visibility 3000m. Mist .
With 30% probability, from till Visibility 305.775m. Fog . Broken Clouds 100ft.

Ruw: TAF LGIO 040200Z 0403/0412 06005KT 9999 SCT008 BKN025 PROB40 TEMPO 0403/0404 5000 RA SCT007 BKN020 OVC070 PROB40 TEMPO 0403/0408 3000 BR PROB30 0404/0408 0300 FG BKN001

Radar en neerslag nowcast voor Ioánnina

Motregen
Licht
Matig
Zwaar
Zeer zwaar
Hail

De locatiemarkering wordt geplaatst op Ioánnina. Deze animation toont de neerslag radar van het afgelopen uur, maar ook de 1h verwachting. Motregen of lichte sneeuwval kan onzichtbaar zijn voor de radar. De neerslagintensiteit wordt met kleuren gecodeerd, van lichtblauw tot oranje.

Huidige satelliet- en regenbeelden voor Ioánnina, Griekenland

De locatiemarkering is geplaatst op Ioánnina. [Meer]

Het realtime satellietbeeld combineert zichtbaar licht overdag met infraroodstraling 's nachts. 's Nachts is het beeld niet donker, omdat infraroodstraling temperatuurverschillen kan waarnemen. Helaas zijn lage wolken en mist moeilijk te onderscheiden van grondtemperaturen en kunnen dus 's nachts bijna onzichtbaar zijn. Meteosat-satellietbeelden voor Europa worden elke 5 minuten in real time bijgewerkt. De beelden van GOES-16/GOES-17 (Noord- en Zuid-Amerika) en Himawari (Azië) worden om de 10 minuten bijgewerkt.

Neerslag wordt geschat door middel van radar en satellieten. Tijdens de nacht zijn de schattingen van satellieten minder nauwkeurig dan overdag. Oranje kruizen geven plaatsten aan waar bliksem werd waargenomen (boven Europa).

Copyright 2021 EUMETSAT / meteoblue. Bliksemgegevens verstrekt door nowcast.